ARABSAT-5A

Last updated on Wed Sep 09 2026 00:02:59 GMT+0000 (Coordinated Universal Time)

1 36745U 10032B 26251.52239562 .00000133 00000+0 00000+0 0 9996 2 36745 0.2469 76.6603 0004330 87.8302 41.6586 1.00273783 59481
UTC large
Height (km)
Speed (km/s)
/
Latitude / Longitude
Inclination (degrees)
Orbital Period (minutes)
Azimuth
Elevation
Range (km)
Doppler Factor

Next 0 passes for location: London (51.5072 / 0.1276)

No passes found over London.
ARABSAT-5A